Regional Weather Roundup
Issued by NWS Sioux Falls, SD

Home | Current Version | Previous Version | Graphics & Text | Print | Product List | Glossary Off
Versions: 1 2 3 4 5 6 7 8 9 10 11 12 13 14 15 16 17 18 19 20 21 22 23 24 25 26 27 28 29 30 31 32 33 34 35 36 37 38 39 40 41 42 43 44 45 46 47 48 49 50

839
ASUS43 KFSD 190602
RWRFSD

WEATHER ROUNDUP FOR SE SOUTH DAKOTA/SW MINNESOTA/NW IOWA
NATIONAL WEATHER SERVICE SIOUX FALLS SD
100 AM CDT THU APR 19 2018

NOTE: "FAIR" INDICATES FEW OR NO CLOUDS BELOW 12,000 FEET WITH NO
SIGNIFICANT WEATHER AND OR OBSTRUCTIONS TO VISIBILITY.


SDZ038>040-050-052>070-190700-
SOUTHEAST SOUTH DAKOTA

CITY           SKY/WX    TMP DP  RH WIND       PRES   REMARKS
BROOKINGS      PTCLDY    33  28  81 N3        30.29R
CHAMBERLAIN    CLEAR     31  30  98 CALM      30.32R
6HR MIN TEMP:  31; 6HR MAX TEMP:  44;

HURON          CLEAR     32  28  85 CALM      30.32R
6HR MIN TEMP:  30; 6HR MAX TEMP:  42;

MADISON        FAIR      32  32 100 N9        30.28R WCI  24
MITCHELL       CLEAR     34  30  85 W8        30.32R WCI  27
6HR MIN TEMP:  32; 6HR MAX TEMP:  38;

SIOUX FALLS    CLOUDY    33  26  75 N9        30.27R WCI  25
6HR MIN TEMP:  32; 6HR MAX TEMP:  35;

WINNER         FLURRIES  33  28  81 SW7       30.33R WCI  27
YANKTON        CLEAR     33  32  96 NW12      30.30R WCI  24
$$

MNZ071-072-080-081-089-090-097-098-190700-
SOUTHWEST MINNESOTA

CITY           SKY/WX    TMP DP  RH WIND       PRES   REMARKS
FAIRMONT       CLOUDY    30  25  81 NW10      30.24R WCI  21
JACKSON        CLOUDY    28  25  86 NW12      30.24R WCI  18
LUVERNE        CLOUDY    34  27  75 N6        30.27R WCI  29
MARSHALL       CLOUDY    32  27  81 NW12      30.29R WCI  23
6HR MIN TEMP:  30; 6HR MAX TEMP:  36;

MONTEVIDEO     CLOUDY    34  27  75 NW3       30.29R
PIPESTONE      PTCLDY   N/A N/A N/A N5        30.27R
REDWOOD FALLS  PTCLDY    32  23  69 N5        30.27R WCI  27
TRACY          CLOUDY    32  26  78 NW10      30.27R WCI  24
WINDOM           N/A     28  12  50 NW13      30.24R WCI  18
WORTHINGTON    CLOUDY    29  25  85 NW9       30.26R WCI  20
$$

IAZ001>003-012>014-020>022-031-032-NEZ013-014-SDZ071-190700-
NORTHWEST IOWA

CITY           SKY/WX    TMP DP  RH WIND       PRES   REMARKS
CHEROKEE       PTCLDY    32  32  98 CALM      30.26R
DENISON        CLEAR     30  28  93 NW6       30.27R WCI  24
ESTHERVILLE    CLOUDY    27  24  89 NW12      30.22R WCI  17
LE MARS        PTCLDY    32  32 100 CALM      30.27R
ORANGE CITY    CLOUDY    34  30  86 N8        30.26R WCI  27
SHELDON        PTCLDY    30  30 100 N12       30.24R WCI  21
SIOUX CITY     CLOUDY    34  30  85 W6        30.28R WCI  29
6HR MIN TEMP:  33; 6HR MAX TEMP:  37; 6HR PCP:  0.01;

SPENCER        PTCLDY    32  27  81 NW9       30.24R WCI  24
6HR MIN TEMP:  31; 6HR MAX TEMP:  34; 6HR PCP: TRACE;

STORM LAKE     CLOUDY    32  30  93 NW12      30.24R WCI  23
$$

ABBREVIATIONS USED IN REMARKS
   TC - TEMPERATURE IN CELSIUS
  WCI - WIND CHILL INDEX
   HX - HEAT INDEX
  VSB - VISIBILITY





USA.gov is the U.S. government's official web portal to all federal, state and local government web resources and services.